Location: Caltech
(34.1382°N, 118.1253°W)
Time: 01:48:41
(UTC-07:00)

Iridium 72 - Visible Passes

Search period start: 27 August 2014 00:00
Search period end: 06 September 2014 00:00
Orbit: 776 x 779 km, 86.4° (Epoch: 26 August)

Date Brightness Start Highest point End Pass type
(mag) Time Alt. Az. Time Alt. Az. Time Alt. Az.
27 Aug 6.4 22:02:19 43° N 22:02:19 43° N 22:05:47 10° N visible
28 Aug 6.4 21:28:38 34° NE 21:28:38 34° NE 21:32:01 10° NNE visible
28 Aug 8.0 23:09:05 17° WNW 23:09:05 17° WNW 23:11:28 10° NW visible
29 Aug 7.0 20:54:56 20° ENE 20:54:56 20° ENE 20:57:45 10° NNE visible
29 Aug 7.2 22:35:22 31° WNW 22:35:22 31° WNW 22:38:59 10° NNW visible
30 Aug 7.5 20:21:11 11° ENE 20:21:11 11° ENE 20:21:56 10° ENE visible
30 Aug 6.1 22:01:38 54° NW 22:01:38 54° NW 22:05:51 10° N visible
31 Aug 5.7 21:27:52 57° NE 21:27:52 57° NE 21:32:19 10° N visible
31 Aug 8.3 23:08:19 12° WNW 23:08:19 12° WNW 23:10:04 10° NW visible
01 Sep 6.3 20:54:04 32° ENE 20:54:04 32° ENE 20:58:22 10° NNE visible
01 Sep 7.5 22:34:30 23° W 22:34:30 23° W 22:38:34 10° NNW visible
02 Sep 7.0 20:20:12 17° E 20:20:31 17° E 20:23:46 10° NE visible
02 Sep 6.4 22:00:38 44° W 22:00:48 44° W 22:05:46 10° NNW visible
03 Sep 5.4 21:26:44 73° SSW 21:27:14 86° W 21:32:27 10° N visible
04 Sep 5.7 20:52:45 42° ESE 20:53:47 48° E 20:58:46 10° NNE visible
04 Sep 8.0 22:33:10 14° W 22:34:44 15° WNW 22:37:45 10° NW visible
05 Sep 6.5 20:18:40 21° ESE 20:20:27 25° E 20:24:37 10° NNE visible
05 Sep 7.2 21:59:05 23° WSW 22:00:58 29° W 22:05:29 10° NNW visible
